Location: Góry Miechowskie
(50.3599°N, 20.1803°E)
Time: 15:21:37
(UTC+00:00)

Vanguard 1 Rocket - Pass Details

Date: 14 September 2024
Orbit: 650 x 4218 km, 34.3° (Epoch: 07 October)

Event Time Altitude Azimuth Distance (km) Brightness Sun altitude
Rises 09:27:40 0° 280° (W) 8,132 12.0 40.7°
Reaches altitude 10° 09:34:58 10° 269° (W) 7,345 11.9 41.1°
Maximum altitude 09:52:02 23° 228° (SW) 6,147 12.2 41.9°
Drops below altitude 10° 10:07:13 10° 185° (S) 6,408 12.8 42.4°
Sets 10:13:04 0° 172° (S) 6,913 12.7 42.6°
